Flag for Australia Weather past 2 weeks in Mildura, Victoria, Australia

Now
65 °F

Mild.


Feels Like: 65 °F
Forecast: 60 / 85 °F
Wind: No wind

Location: Mildura Airport

Current Time: Apr 1, 2015 at 12:12:42 AM

Latest Report: Mar 31, 2015 at 11:00 PM


Visibility: N/A

Pressure: 30.14 "Hg

Humidity: 38%

Dew point: 39 °F

Location of MilduraLocation

Historic Weather in Mildura — Graph

°F

Mildura temperature yesterday

Maximum temperature yesterday: 88 °F (at 5:00 PM)
Minimum temperature yesterday: 53 °F (at 8:00 AM)
Average temperature yesterday: 70 °F

Past Weeks' High & Low Weather Summary

 TemperatureHumidityPressure
High103 °F (Mar 19, 4:00 PM)84% (Mar 18, 7:00 AM)30.37 "Hg (Mar 18, 7:00 AM)
Low44 °F (Mar 25, 5:00 AM)11% (Mar 17, 5:00 PM)29.50 "Hg (Mar 17, 4:00 PM)
Average67 °F43%30.05 "Hg
* Reported Mar 16 10:00 PM — Mar 31 10:00 PM, Mildura, Weather by CustomWeather, © 2015

Note: Actual official high and low records may vary slightly from our data, if they occured in-between our weather recording intervals... More about our weather records

Advertising

Mildura weather history for previous 24 hours

 ConditionsComfort  
Time TempWeatherWind HumidityBarometerVisibility
10:00 PM
Tue, Mar 31
69 °FMild.5 mph34%30.13 "HgN/A
9:00 PM72 °FMild.5 mph30%30.13 "HgN/A
8:00 PM76 °FMild.3 mph26%30.12 "HgN/A
7:00 PM85 °FPleasantly warm.3 mph17%30.12 "HgN/A
6:00 PM87 °FPleasantly warm.3 mph15%30.11 "HgN/A
5:00 PM88 °FPleasantly warm.3 mph15%30.11 "HgN/A
4:00 PM88 °FPleasantly warm.3 mph16%30.13 "HgN/A
3:00 PM86 °FPassing clouds.8 mph16%30.15 "Hg25 mi
1:00 PM84 °FPleasantly warm.7 mph20%30.21 "HgN/A
12:00 PM82 °FPleasantly warm.9 mph22%30.24 "HgN/A
11:00 AM75 °FMild.8 mph33%30.26 "HgN/A
10:00 AM67 °FMild.7 mph42%30.28 "HgN/A
9:00 AM60 °FSunny.7 mph51%30.26 "Hg19 mi
8:00 AM53 °FCool.7 mph61%30.24 "HgN/A
7:00 AM54 °FCool.5 mph61%30.22 "HgN/A
6:00 AM56 °FRefreshingly cool.5 mph56%30.21 "HgN/A
5:00 AM57 °FRefreshingly cool.5 mph55%30.21 "HgN/A
4:00 AM60 °FRefreshingly cool.6 mph51%30.21 "HgN/A
3:00 AM59 °FRefreshingly cool.6 mph51%30.22 "HgN/A
2:00 AM61 °FRefreshingly cool.5 mph48%30.22 "HgN/A
1:00 AM63 °FMild.6 mph45%30.22 "HgN/A
12:00 AM64 °FMild.5 mph43%30.23 "HgN/A
Weather by CustomWeather, © 2015

See weather overviewHow to use our weather pages